Weather reports worldwide

Advertisment
La Roda de Andalucia, Spain (8399): temperature & dewpoint: 17.08.2019 14:00:00 - 23.08.2019 14:00:00 (CEST)La Roda de Andalucia, Spain (8399): wind speed & gusts: 17.08.2019 14:00:00 - 23.08.2019 14:00:00 (CEST)La Roda de Andalucia, Spain (8399): wind direction: 17.08.2019 14:00:00 - 23.08.2019 14:00:00 (CEST)La Roda de Andalucia, Spain (8399): reduced air pressure: 17.08.2019 14:00:00 - 23.08.2019 14:00:00 (CEST)La Roda de Andalucia, Spain (8399): visibility: 17.08.2019 14:00:00 - 23.08.2019 14:00:00 (CEST)La Roda de Andalucia, Spain (8399): sunshine duration: 17.08.2019 14:00:00 - 23.08.2019 14:00:00 (CEST)La Roda de Andalucia, Spain (8399): precipitation: 17.08.2019 14:00:00 - 23.08.2019 14:00:00 (CEST)
Date & Time tt [°C] td [°C] ff [km/h] ff [kn] fx [km/h] fx [kn] dd ppp [hPa] vv [km] sd [min] rr [mm]
23.08.2019 14:00:00 - - - - - - - - - - -
23.08.2019 13:00:00 30,7 9,6 18 10 34 19 SSE 1015,6 20 60 0,0
23.08.2019 12:00:00 28,4 11,0 18 10 32 18 S 1016,3 8 60 0,0
23.08.2019 11:00:00 26,3 13,5 16 9 30 16 S 1016,8 20 60 0,0
23.08.2019 10:00:00 - - - - - - - - - - -
23.08.2019 09:00:00 - - - - - - - - - - -
23.08.2019 08:00:00 20,3 16,1 13 7 29 16 SSE 1016,5 20 0 -
23.08.2019 07:00:00 - - - - - - - - - - -
23.08.2019 06:00:00 21,0 16,2 14 8 32 17 SSE 1016,1 20 0 0,0
23.08.2019 05:00:00 21,3 16,2 19 10 34 18 S 1016,1 20 0 0,0
23.08.2019 04:00:00 - - - - - - - - - - -
23.08.2019 03:00:00 22,3 16,3 17 9 37 20 S 1015,7 20 0 0,0
23.08.2019 02:00:00 - - - - - - - - - - -
23.08.2019 01:00:00 - - - - - - - - - - -
23.08.2019 00:00:00 - - - - - - - - - - -
22.08.2019 23:00:00 23,3 16,8 22 12 40 22 S 1015,9 20 0 0,0
22.08.2019 22:00:00 24,2 16,7 20 11 43 23 S 1015,3 20 0 0,0
22.08.2019 21:00:00 24,9 16,3 26 14 46 25 S 1014,7 20 10 0,0
22.08.2019 20:00:00 - - - - - - - - - - -
22.08.2019 19:00:00 - - - - - - - - - - -
22.08.2019 18:00:00 29,4 15,5 24 13 42 23 S 1013,9 20 60 0,0
22.08.2019 17:00:00 - - - - - - - - - - -
22.08.2019 16:00:00 - - - - - - - - - - -
22.08.2019 15:00:00 31,3 13,1 20 11 37 20 S 1014,6 20 60 0,0
22.08.2019 14:00:00 - - - - - - - - - - -
22.08.2019 13:00:00 29,5 15,6 15 8 32 18 SSE 1015,9 20 60 0,0
22.08.2019 12:00:00 28,3 15,9 13 7 29 16 SSE 1016,4 20 55 0,0
22.08.2019 11:00:00 26,9 16,8 11 6 26 14 SSE 1016,5 20 59 0,0
22.08.2019 10:00:00 24,4 16,6 14 7 30 16 S 1016,7 20 59 0,0
22.08.2019 09:00:00 - - - - - - - - - - -
22.08.2019 08:00:00 - - - - - - - - - - -
22.08.2019 07:00:00 21,7 17,7 11 6 31 17 S 1016,4 20 0 0,0
22.08.2019 06:00:00 22,0 17,8 16 9 29 16 S 1016,4 20 0 0,0
22.08.2019 05:00:00 22,1 17,9 16 9 33 18 SSE 1016,5 20 0 0,0
22.08.2019 04:00:00 22,2 17,5 9 5 24 13 S 1016,7 20 0 0,0
22.08.2019 03:00:00 22,6 17,3 11 6 33 18 S 1016,9 20 0 0,0
22.08.2019 02:00:00 22,9 17,8 18 10 32 17 S 1017,1 20 0 -
22.08.2019 01:00:00 - - - - - - - - - - -
22.08.2019 00:00:00 - - - - - - - - - - -
21.08.2019 23:00:00 23,9 15,9 16 9 33 18 S 1016,1 20 0 0,0
21.08.2019 22:00:00 24,7 16,1 16 8 32 17 S 1015,1 20 0 0,0
21.08.2019 21:00:00 - - - - - - - - - - -
21.08.2019 20:00:00 - - - - - - - - - - -
21.08.2019 19:00:00 30,4 14,5 17 9 32 17 S 1013,0 20 60 0,0
21.08.2019 18:00:00 31,5 14,1 15 8 33 18 SSE 1013,1 20 60 0,0
21.08.2019 17:00:00 32,0 14,1 16 9 35 19 S 1013,1 20 60 0,0
21.08.2019 16:00:00 - - - - - - - - - - -
21.08.2019 15:00:00 - - - - - - - - - - -
21.08.2019 14:00:00 31,9 14,5 18 10 35 19 SSE 1014,0 20 60 -
21.08.2019 13:00:00 - - - - - - - - - - -
21.08.2019 12:00:00 29,3 16,8 16 9 35 19 SSE 1015,3 20 60 0,0
21.08.2019 11:00:00 27,6 17,1 19 11 36 19 S 1015,6 20 60 0,0
21.08.2019 10:00:00 25,8 18,2 19 10 35 19 S 1015,4 20 60 0,0
21.08.2019 09:00:00 - - - - - - - - - - -
21.08.2019 08:00:00 - - - - - - - - - - -
21.08.2019 07:00:00 - - - - - - - - - - -
21.08.2019 06:00:00 23,3 17,9 13 7 28 15 S 1014,9 20 0 0,0
21.08.2019 05:00:00 23,3 17,8 16 9 32 17 S 1015,2 19 0 0,0
21.08.2019 04:00:00 23,3 17,8 19 10 34 18 S 1015,3 18 0 0,0
21.08.2019 03:00:00 23,4 17,6 18 10 34 19 S 1015,5 18 0 0,0
21.08.2019 02:00:00 24,2 17,2 17 9 33 18 S 1015,2 20 0 -
21.08.2019 01:00:00 - - - - - - - - - - -
21.08.2019 00:00:00 - - - - - - - - - - -
20.08.2019 23:00:00 - - - - - - - - - - -
20.08.2019 22:00:00 27,7 13,3 11 6 20 11 S 1013,3 20 0 0,0
20.08.2019 21:00:00 - - - - - - - - - - -
20.08.2019 20:00:00 32,5 -0,5 11 6 21 11 N 1011,6 20 60 -
20.08.2019 19:00:00 33,6 -1,0 10 5 28 15 NNW 1011,7 20 60 0,0
20.08.2019 18:00:00 35,1 0,2 8 4 20 11 WNW 1011,5 20 60 0,0
20.08.2019 17:00:00 33,9 0,4 9 5 20 11 NNW 1011,8 20 60 0,0
20.08.2019 16:00:00 33,5 1,3 10 6 24 13 N 1012,5 20 60 0,0
20.08.2019 15:00:00 32,5 4,3 7 4 21 12 NW 1012,9 20 60 0,0
20.08.2019 14:00:00 32,5 0,4 9 5 20 11 NNW 1013,3 20 60 -
20.08.2019 13:00:00 31,4 -0,3 6 3 16 8 NW 1013,9 20 60 0,0
20.08.2019 12:00:00 29,9 3,0 5 3 11 6 NW 1014,1 20 60 0,0
20.08.2019 11:00:00 26,9 4,6 3 2 8 4 SSW 1014,3 20 60 0,0
20.08.2019 10:00:00 23,5 5,0 4 2 7 4 WNW 1014,5 20 60 0,0
20.08.2019 09:00:00 18,7 6,2 0 0 6 4 N 1015,0 15 11 0,0
20.08.2019 08:00:00 16,5 3,9 3 2 8 5 SSW 1015,1 20 0 -
20.08.2019 07:00:00 16,7 3,4 6 3 8 4 S 1014,5 - 0 0,0
20.08.2019 06:00:00 17,5 3,4 4 2 8 5 SSW 1014,6 - 0 0,0
20.08.2019 05:00:00 - - - - - - - - - - -
20.08.2019 04:00:00 - - - - - - - - - - -
20.08.2019 03:00:00 19,8 4,6 6 3 9 5 S 1014,3 - 0 0,0
20.08.2019 02:00:00 - - - - - - - - - - -
20.08.2019 01:00:00 - - - - - - - - - - -
20.08.2019 00:00:00 - - - - - - - - - - -
19.08.2019 23:00:00 - - - - - - - - - - -
19.08.2019 22:00:00 - - - - - - - - - - -
19.08.2019 21:00:00 30,0 6,5 15 8 32 17 W 1011,3 - 11 0,0
19.08.2019 20:00:00 - - - - - - - - - - -
19.08.2019 19:00:00 34,3 7,4 12 7 33 18 WNW 1010,5 - 60 0,0
19.08.2019 18:00:00 35,3 8,1 15 8 30 16 W 1010,6 - 60 0,0
19.08.2019 17:00:00 - - - - - - - - - - -
19.08.2019 16:00:00 - - - - - - - - - - -
19.08.2019 15:00:00 - - - - - - - - - - -
19.08.2019 14:00:00 - - - - - - - - - - -
19.08.2019 13:00:00 32,6 9,4 4 2 12 7 N 1012,5 - 60 0,0
19.08.2019 12:00:00 - - - - - - - - - - -
19.08.2019 11:00:00 - - - - - - - - - - -
19.08.2019 10:00:00 24,4 11,0 3 2 8 4 NNE 1014,3 20 60 0,0
19.08.2019 09:00:00 18,9 11,0 1 1 7 4 SSW 1014,9 20 11 0,0
19.08.2019 08:00:00 - - - - - - - - - - -
19.08.2019 07:00:00 - - - - - - - - - - -
19.08.2019 06:00:00 - - - - - - - - - - -
19.08.2019 05:00:00 - - - - - - - - - - -
19.08.2019 04:00:00 - - - - - - - - - - -
19.08.2019 03:00:00 19,4 5,5 7 4 9 5 S 1014,8 20 0 0,0
19.08.2019 02:00:00 20,6 6,5 6 3 8 4 S 1014,6 20 0 -
19.08.2019 01:00:00 - - - - - - - - - - -
19.08.2019 00:00:00 26,1 8,1 11 6 22 12 WSW 1013,3 20 0 0,0
18.08.2019 23:00:00 27,0 8,9 16 8 25 14 WSW 1012,7 20 0 0,0
18.08.2019 22:00:00 - - - - - - - - - - -
18.08.2019 21:00:00 - - - - - - - - - - -
18.08.2019 20:00:00 33,3 8,0 15 8 33 18 W 1010,3 20 60 -
18.08.2019 19:00:00 34,7 9,2 21 11 39 21 W 1010,1 20 60 0,0
18.08.2019 18:00:00 36,2 8,9 19 10 37 20 WNW 1009,8 20 60 0,0
18.08.2019 17:00:00 - - - - - - - - - - -
18.08.2019 16:00:00 36,7 4,8 13 7 28 15 WNW 1010,3 20 60 0,0
18.08.2019 15:00:00 - - - - - - - - - - -
18.08.2019 14:00:00 - - - - - - - - - - -
18.08.2019 13:00:00 - - - - - - - - - - -
18.08.2019 12:00:00 33,0 7,0 6 3 13 7 W 1012,1 20 60 0,0
18.08.2019 11:00:00 30,9 6,7 9 5 15 8 W 1012,1 20 60 0,0
18.08.2019 10:00:00 27,8 7,1 3 1 6 4 WNW 1012,2 20 60 0,0
18.08.2019 09:00:00 21,2 7,4 1 1 10 5 WNW 1012,7 20 9 0,0
18.08.2019 08:00:00 17,7 5,6 6 3 8 5 S 1013,0 20 0 -
18.08.2019 07:00:00 19,0 5,5 4 2 11 6 S 1012,1 20 0 0,0
18.08.2019 06:00:00 - - - - - - - - - - -
18.08.2019 05:00:00 - - - - - - - - - - -
18.08.2019 04:00:00 20,9 4,8 6 3 10 5 S 1012,6 20 0 0,0
18.08.2019 03:00:00 22,9 4,8 3 2 11 6 SSE 1012,8 20 0 0,0
18.08.2019 02:00:00 25,0 5,8 8 4 18 10 S 1012,9 20 0 -
18.08.2019 01:00:00 25,9 5,9 11 6 18 10 S 1012,7 20 0 0,0
18.08.2019 00:00:00 - - - - - - - - - - -
17.08.2019 23:00:00 - - - - - - - - - - -
17.08.2019 22:00:00 - - - - - - - - - - -
17.08.2019 21:00:00 - - - - - - - - - - -
17.08.2019 20:00:00 35,1 2,5 16 9 34 19 S 1009,5 20 60 -
17.08.2019 19:00:00 - - - - - - - - - - -
17.08.2019 18:00:00 37,9 3,6 20 11 37 20 SSE 1009,6 20 60 0,0
17.08.2019 17:00:00 39,4 3,4 18 10 36 19 S 1009,6 20 60 0,0
17.08.2019 16:00:00 39,3 3,4 15 8 33 18 SSE 1010,1 20 60 0,0
17.08.2019 15:00:00 - - - - - - - - - - -
17.08.2019 14:00:00 38,5 4,1 14 8 29 15 S 1011,4 20 60 -

tt = temperature
td = dewpoint
ff = wind speed
fx = gusts
dd = wind direction
ppp = reduced air pressure
vv = visibility
sd = sunshine duration
rr = precipitation

Next stations